Terminal Aerodrome Forecast
Issued by NWS

Home | Current Version | Previous Version | Text Only | Print | Product List | Glossary On
Versions: 1 2 3 4 5 6 7 8 9 10 11 12 13 14 15 16 17 18 19
000
FTUS44 KLIX 251720
TAFMCB
TAF
KMCB 251720Z 2518/2618 18009KT P6SM SKC
     FM261000 16007KT 3SM BR BKN015
     FM261400 17011KT P6SM BKN015
     FM261700 18013KT P6SM BKN035=

USA.gov is the U.S. government's official web portal to all federal, state and local government web resources and services.